TimeEDT,TemperatureF,Dew PointF,Humidity,Sea Level PressureIn,VisibilityMPH,Wind Direction,Wind SpeedMPH,Gust SpeedMPH,PrecipitationIn,Events,Conditions,WindDirDegrees,DateUTC
12:52 AM,36.0,30.0,79,30.29,10.0,Calm,Calm,-,N/A,,Clear,0,2013-04-26 04:52:00
1:52 AM,37.0,30.0,76,30.30,10.0,Calm,Calm,-,N/A,,Clear,0,2013-04-26 05:52:00
2:52 AM,35.1,28.9,78,30.30,10.0,Calm,Calm,-,N/A,,Clear,0,2013-04-26 06:52:00
3:52 AM,33.1,28.9,85,30.31,10.0,Calm,Calm,-,N/A,,Clear,0,2013-04-26 07:52:00
4:52 AM,33.1,28.0,82,30.33,10.0,Calm,Calm,-,N/A,,Clear,0,2013-04-26 08:52:00
5:52 AM,32.0,27.0,82,30.34,10.0,Calm,Calm,-,N/A,,Clear,0,2013-04-26 09:52:00
6:52 AM,34.0,28.9,82,30.36,10.0,Calm,Calm,-,N/A,,Clear,0,2013-04-26 10:52:00
7:52 AM,39.9,30.0,68,30.37,10.0,Calm,Calm,-,N/A,,Clear,0,2013-04-26 11:52:00
8:52 AM,52.0,33.1,49,30.37,10.0,NNE,3.5,-,N/A,,Clear,20,2013-04-26 12:52:00
9:52 AM,57.0,33.1,40,30.37,10.0,SSW,3.5,-,N/A,,Clear,210,2013-04-26 13:52:00
10:52 AM,59.0,30.0,33,30.37,10.0,South,5.8,-,N/A,,Clear,170,2013-04-26 14:52:00
11:52 AM,61.0,28.9,30,30.36,10.0,Calm,Calm,-,N/A,,Clear,0,2013-04-26 15:52:00
12:52 PM,63.0,27.0,26,30.34,10.0,Variable,4.6,-,N/A,,Clear,0,2013-04-26 16:52:00
1:52 PM,63.0,27.0,26,30.32,10.0,Variable,4.6,-,N/A,,Mostly Cloudy,0,2013-04-26 17:52:00
2:52 PM,63.0,27.0,26,30.32,10.0,Calm,Calm,-,N/A,,Mostly Cloudy,0,2013-04-26 18:52:00
3:52 PM,64.0,30.0,28,30.31,10.0,SSW,10.4,-,N/A,,Overcast,200,2013-04-26 19:52:00
4:52 PM,62.1,30.9,31,30.32,10.0,South,9.2,-,N/A,,Overcast,190,2013-04-26 20:52:00
5:52 PM,61.0,30.0,31,30.32,10.0,South,9.2,-,N/A,,Partly Cloudy,180,2013-04-26 21:52:00
6:52 PM,59.0,32.0,36,30.34,10.0,South,9.2,-,N/A,,Scattered Clouds,170,2013-04-26 22:52:00
7:52 PM,57.9,34.0,41,30.35,10.0,SE,4.6,-,N/A,,Overcast,130,2013-04-26 23:52:00
8:52 PM,54.0,35.1,49,30.37,10.0,SE,4.6,-,N/A,,Clear,130,2013-04-27 00:52:00
9:52 PM,51.1,34.0,52,30.39,10.0,ENE,3.5,-,N/A,,Clear,60,2013-04-27 01:52:00
10:52 PM,48.0,34.0,58,30.41,10.0,Calm,Calm,-,N/A,,Clear,0,2013-04-27 02:52:00
11:52 PM,46.0,35.1,66,30.41,10.0,Calm,Calm,-,N/A,,Clear,0,2013-04-27 03:52:00